Other Public Products
Issued by NWS Charleston, SC

Current Version | Previous Version | Graphics & Text | Print | Product List | Glossary On
Versions: 1 2 3 4 5 6 7 8 9 10 11 12 13 14 15 16 17 18 19 20 21 22 23 24 25 26 27 28 29 30 31 32 33 34 35 36 37 38 39 40 41 42 43 44 45 46 47 48 49 50
979 FPUS82 KCHS 212127 OPUCHS TEST...KCHS/KSAV Gateway Observations...TEST National Weather Service Charleston SC 400 PM EST SUN JAN 21 2018 NOTE: "fair" indicates few or no clouds below 12,000 feet with no significant weather and/or obstructions to visibility. SCZ050-WAZ558-NCZ071-TXZ119-213-PAZ071-DCZ001-FLZ074-172-MI076- NYZ176-178-MAZ016-IL014-TNZ027-NJZ106-GAZ044-MD014-212200- ...Gateway Observations for Charleston International... CITY SKY/WX TMP DP RH WIND PRES REMARKS Chas Airport FAIR 66 42 41 SE9 30.20S Seattle CLOUDY 47 38 71 S20G32 29.84R Charlotte FAIR 68 41 37 S8 30.18F Dallas DFW CLOUDY 76 60 57 S23 29.72F Dallas Love LGT RAIN 73 61 65 SW18G32 29.74F Philladelphia PTSUNNY 52 37 56 S3 30.15F Wash National CLOUDY 57 39 51 S8 30.14S Baltimore PTSUNNY 54 38 54 SE6 30.14S Miami FAIR 78 63 59 E14 30.11S Detroit CLOUDY 42 39 89 E5 30.00R FOG Newark MOCLDY 52 31 44 SW6 30.14R Laguardia MOCLDY 48 30 49 N3 30.13S J F K MOCLDY 49 31 49 SW7 30.15S Boston Logan CLOUDY 47 30 51 SW8 30.13R Ft. Lauderdale PTSUNNY 76 67 73 E16 30.11S Chicago O`Hare CLOUDY 44 41 89 SE5 29.90R FOG Chicago Midway CLOUDY 44 42 93 E6 29.90S FOG Houston Bush CLOUDY 72 64 76 S12G21 29.90F Houston Hobby CLOUDY 71 67 87 S12G21 29.90F Nashville FAIR 68 48 48 S14 30.07F Atlanta FAIR 68 45 43 S6 30.17F $$ GAZ044-118-TXZ119-213-NCZ071-DCZ001-MDZ014-506-PAZ021-071-NJZ106- NYZ176-178-MAZ106-OHZ011-021-055-MIZ076-KYZ091-ILZ014-INZ047- MNZ060-ONZ431-212200- ...Gateway Observations for Savannah International... CITY SKY/WX TMP DP RH WIND PRES REMARKS Savannah Arpt FAIR 70 40 33 CALM 30.19F Atlanta FAIR 68 45 43 S6 30.17F Charlotte FAIR 68 41 37 S8 30.18F Dallas DFW CLOUDY 76 60 57 S23 29.72F Houston Bush CLOUDY 72 64 76 S12G21 29.90F Wash National CLOUDY 57 39 51 S8 30.14S Wash Dulles PTSUNNY 60 42 51 SE6 30.12S Baltimore PTSUNNY 54 38 54 SE6 30.14S Philadelphia PTSUNNY 52 37 56 S3 30.15F Newark MOCLDY 52 31 44 SW6 30.14R Laguardia MOCLDY 48 30 49 N3 30.13S J F K MOCLDY 49 31 49 SW7 30.15S Boston CLOUDY 47 30 51 SW8 30.13R Pittsburg CLOUDY 50 42 74 SW6 30.06S Akron CLOUDY 45 39 79 SW9 30.04R Cleveland CLOUDY 47 42 83 S6 30.04S Cincinnati CLOUDY 55 50 83 S12 30.03F Columbus CLOUDY 49 47 92 S6 30.05R Detroit CLOUDY 42 39 89 E5 30.00R FOG Chicago O`Hare CLOUDY 44 41 89 SE5 29.90R FOG Minneapolis CLOUDY 38 30 73 N9 29.95R WCI 31 Indianapolis DRZL/FOG 49 49 100 S9 29.99S VSB 1 Toronto Canada CLOUDY 37 32 81 SE5 30.05R WCI 34 $$

USA.gov is the U.S. government's official web portal to all federal, state and local government web resources and services.